Location: Unspecified
(44.0704°N, 88.6889°W)
Time: 11:20:29
(UTC+02:00)

Vanguard 2 Rocket - Pass Details

Date: 14 August 2020
Orbit: 554 x 3326 km, 32.9° (Epoch: 22 September)

Event Time Altitude Azimuth Distance (km) Brightness Sun altitude
Rises 04:28:23 0° 263° (W) 4,049 11.0 -14.5°
Reaches altitude 10° 04:30:57 10° 255° (WSW) 3,381 10.3 -14.9°
Maximum altitude 04:38:57 36° 192° (SSW) 2,706 9.0 -16.0°
Enters shadow 04:47:14 20° 143° (SE) 4,289 9.7 -17.1°
